| time (UTC) | temp F | wind direction | speed MPH | gust MPH | rain 1hr in | rain 24hr in | rain mn in | humidity % | barometer mb |
| 20260507085131 | 72 | 262 | 0.0 | 1.0 | 0.00 | 0.00 | 0.00 | 85 | 1015.5 |
| 20260507084627 | 72 | 257 | 0.0 | 1.0 | 0.00 | 0.00 | 0.00 | 85 | 1015.6 |
| 20260507084124 | 72 | 262 | 0.0 | 0.0 | 0.00 | 0.00 | 0.00 | 85 | 1015.6 |
| 20260507083621 | 72 | 262 | 0.0 | 0.0 | 0.00 | 0.00 | 0.00 | 85 | 1015.6 |
| 20260507083118 | 72 | 266 | 0.0 | 1.0 | 0.00 | 0.00 | 0.00 | 85 | 1015.4 |
| 20260507082614 | 71 | 256 | 2.0 | 2.0 | 0.00 | 0.00 | 0.00 | 85 | 1015.5 |
| 20260507082110 | 71 | 258 | 0.0 | 1.0 | 0.00 | 0.00 | 0.00 | 85 | 1015.5 |
| 20260507081607 | 71 | 262 | 1.0 | 1.0 | 0.00 | 0.00 | 0.00 | 85 | 1015.3 |
| 20260507081104 | 71 | 231 | 1.0 | 2.0 | 0.00 | 0.00 | 0.00 | 85 | 1015.5 |
| 20260507080600 | 71 | 259 | 1.0 | 1.0 | 0.00 | 0.00 | 0.00 | 85 | 1015.6 |
| 20260507080056 | 71 | 267 | 0.0 | 1.0 | 0.00 | 0.00 | 0.00 | 85 | 1015.8 |
| 20260507075551 | 72 | 270 | 1.0 | 1.0 | 0.00 | 0.00 | 0.00 | 85 | 1015.6 |
| 20260507075048 | 72 | 251 | 1.0 | 1.0 | 0.00 | 0.00 | 0.00 | 85 | 1015.9 |
| 20260507074545 | 72 | 253 | 1.0 | 1.0 | 0.00 | 0.00 | 0.00 | 85 | 1015.8 |
| 20260507074043 | 72 | 256 | 2.0 | 2.0 | 0.00 | 0.00 | 0.00 | 84 | 1015.8 |
| 20260507073539 | 72 | 262 | 0.0 | 0.0 | 0.00 | 0.00 | 0.00 | 83 | 1016.0 |
| 20260507073036 | 72 | 260 | 0.0 | 0.0 | 0.00 | 0.00 | 0.00 | 83 | 1015.8 |
| 20260507072533 | 72 | 268 | 0.0 | 0.0 | 0.00 | 0.00 | 0.00 | 83 | 1016.1 |
| 20260507072030 | 72 | 262 | 0.0 | 0.0 | 0.00 | 0.00 | 0.00 | 82 | 1016.1 |
| 20260507071528 | 72 | 261 | 0.0 | 0.0 | 0.00 | 0.00 | 0.00 | 82 | 1016.3 |
| 20260507071024 | 73 | 264 | 0.0 | 0.0 | 0.00 | 0.00 | 0.00 | 82 | 1016.4 |
| 20260507070521 | 73 | 262 | 1.0 | 1.0 | 0.00 | 0.00 | 0.00 | 81 | 1016.5 |
| 20260507070018 | 73 | 263 | 1.0 | 1.0 | 0.00 | 0.00 | 0.00 | 81 | 1016.2 |
| 20260507065514 | 73 | 261 | 0.0 | 0.0 | 0.00 | 0.00 | 0.00 | 81 | 1016.3 |
| 20260507065012 | 72 | 260 | 0.0 | 0.0 | 0.00 | 0.00 | 0.00 | 81 | 1016.4 |
| 20260507064509 | 72 | 260 | 0.0 | 0.0 | 0.00 | 0.00 | 0.00 | 82 | 1016.4 |
| 20260507064008 | 72 | 262 | 0.0 | 0.0 | 0.00 | 0.00 | 0.00 | 81 | 1016.7 |
| 20260507063504 | 72 | 263 | 0.0 | 0.0 | 0.00 | 0.00 | 0.00 | 81 | 1016.7 |
| 20260507063002 | 73 | 263 | 0.0 | 0.0 | 0.00 | 0.00 | 0.00 | 81 | 1016.7 |
| 20260507062458 | 73 | 261 | 0.0 | 0.0 | 0.00 | 0.00 | 0.00 | 81 | 1016.9 |
| 20260507061956 | 73 | 260 | 0.0 | 0.0 | 0.00 | 0.00 | 0.00 | 80 | 1016.7 |
| 20260507061453 | 73 | 262 | 0.0 | 0.0 | 0.00 | 0.00 | 0.00 | 80 | 1017.1 |
| 20260507060952 | 73 | 263 | 0.0 | 0.0 | 0.00 | 0.00 | 0.00 | 80 | 1017.1 |
| 20260507060449 | 73 | 262 | 0.0 | 0.0 | 0.00 | 0.00 | 0.00 | 80 | 1017.3 |
| 20260507055945 | 73 | 263 | 0.0 | 0.0 | 0.00 | 0.00 | 0.00 | 79 | 1017.5 |
| 20260507055440 | 73 | 263 | 0.0 | 0.0 | 0.00 | 0.00 | 0.00 | 79 | 1017.3 |
| 20260507054937 | 73 | 263 | 0.0 | 0.0 | 0.00 | 0.00 | 0.00 | 79 | 1017.6 |
| 20260507054433 | 73 | 263 | 0.0 | 0.0 | 0.00 | 0.00 | 0.00 | 78 | 1017.3 |
| 20260507053930 | 74 | 263 | 0.0 | 0.0 | 0.00 | 0.00 | 0.00 | 77 | 1017.5 |
| 20260507053422 | 73 | 263 | 0.0 | 0.0 | 0.00 | 0.00 | 0.00 | 77 | 1017.5 |
| 20260507052921 | 74 | 263 | 0.0 | 0.0 | 0.00 | 0.00 | 0.00 | 77 | 1017.7 |
| 20260507052418 | 74 | 263 | 0.0 | 0.0 | 0.00 | 0.00 | 0.00 | 77 | 1017.8 |
| 20260507051915 | 74 | 263 | 0.0 | 0.0 | 0.00 | 0.00 | 0.00 | 76 | 1017.8 |
| 20260507051413 | 74 | 262 | 0.0 | 0.0 | 0.00 | 0.00 | 0.00 | 76 | 1017.7 |
| 20260507050909 | 74 | 263 | 0.0 | 0.0 | 0.00 | 0.00 | 0.00 | 75 | 1017.7 |
| 20260507050406 | 74 | 263 | 0.0 | 0.0 | 0.00 | 0.00 | 0.00 | 75 | 1017.8 |
| 20260507045902 | 74 | 263 | 0.0 | 0.0 | 0.00 | 0.00 | 0.00 | 74 | 1017.5 |
| 20260507045359 | 74 | 260 | 0.0 | 1.0 | 0.00 | 0.00 | 0.00 | 74 | 1017.4 |
| 20260507044857 | 74 | 260 | 0.0 | 0.0 | 0.00 | 0.00 | 0.00 | 73 | 1017.3 |
| 20260507044353 | 75 | 261 | 0.0 | 0.0 | 0.00 | 0.00 | 0.00 | 73 | 1017.6 |
| 20260507043849 | 75 | 260 | 0.0 | 0.0 | 0.00 | 0.00 | 0.00 | 72 | 1017.7 |
| 20260507043346 | 75 | 258 | 0.0 | 1.0 | 0.00 | 0.00 | 0.00 | 72 | 1017.6 |
| 20260507042842 | 75 | 264 | 0.0 | 0.0 | 0.00 | 0.00 | 0.00 | 71 | 1017.8 |
| 20260507042338 | 75 | 268 | 0.0 | 0.0 | 0.00 | 0.00 | 0.00 | 71 | 1017.9 |
| 20260507041835 | 75 | 257 | 0.0 | 0.0 | 0.00 | 0.00 | 0.00 | 71 | 1018.1 |
| 20260507041331 | 75 | 256 | 0.0 | 0.0 | 0.00 | 0.00 | 0.00 | 71 | 1018.0 |
| 20260507040829 | 75 | 255 | 0.0 | 0.0 | 0.00 | 0.00 | 0.00 | 70 | 1017.9 |
| 20260507040325 | 76 | 256 | 0.0 | 0.0 | 0.00 | 0.00 | 0.00 | 70 | 1018.1 |
| 20260507035821 | 76 | 255 | 1.0 | 1.0 | 0.00 | 0.00 | 0.00 | 69 | 1018.1 |
| 20260507035316 | 76 | 252 | 0.0 | 0.0 | 0.00 | 0.00 | 0.00 | 69 | 1018.0 |
| 20260507034814 | 76 | 254 | 0.0 | 1.0 | 0.00 | 0.00 | 0.00 | 69 | 1018.0 |
| 20260507034311 | 76 | 252 | 0.0 | 1.0 | 0.00 | 0.00 | 0.00 | 69 | 1017.9 |
| 20260507033809 | 76 | 252 | 0.0 | 0.0 | 0.00 | 0.00 | 0.00 | 69 | 1017.8 |
| 20260507033306 | 76 | 253 | 1.0 | 1.0 | 0.00 | 0.00 | 0.00 | 69 | 1017.8 |
| 20260507032803 | 76 | 253 | 0.0 | 0.0 | 0.00 | 0.00 | 0.00 | 69 | 1017.8 |
| 20260507032259 | 76 | 255 | 0.0 | 0.0 | 0.00 | 0.00 | 0.00 | 69 | 1017.8 |
| 20260507031756 | 76 | 252 | 0.0 | 1.0 | 0.00 | 0.00 | 0.00 | 68 | 1017.9 |
| 20260507031252 | 76 | 253 | 0.0 | 0.0 | 0.00 | 0.00 | 0.00 | 67 | 1017.9 |
| 20260507030744 | 76 | 252 | 0.0 | 0.0 | 0.00 | 0.00 | 0.00 | 67 | 1017.9 |
| 20260507030241 | 77 | 252 | 0.0 | 0.0 | 0.00 | 0.00 | 0.00 | 67 | 1018.1 |
| 20260507025738 | 77 | 252 | 1.0 | 1.0 | 0.00 | 0.00 | 0.00 | 66 | 1017.8 |
| 20260507025235 | 76 | 252 | 0.0 | 1.0 | 0.00 | 0.00 | 0.00 | 66 | 1018.0 |
| 20260507024733 | 77 | 252 | 1.0 | 2.0 | 0.00 | 0.00 | 0.00 | 66 | 1017.8 |
| 20260507024230 | 77 | 255 | 0.0 | 1.0 | 0.00 | 0.00 | 0.00 | 65 | 1017.9 |
| 20260507023725 | 77 | 253 | 0.0 | 0.0 | 0.00 | 0.00 | 0.00 | 66 | 1017.9 |
| 20260507023223 | 77 | 250 | 1.0 | 1.0 | 0.00 | 0.00 | 0.00 | 65 | 1017.9 |
| 20260507022720 | 77 | 253 | 1.0 | 1.0 | 0.00 | 0.00 | 0.00 | 65 | 1017.8 |
| 20260507022216 | 77 | 252 | 1.0 | 1.0 | 0.00 | 0.00 | 0.00 | 64 | 1017.8 |
| 20260507021712 | 77 | 258 | 0.0 | 0.0 | 0.00 | 0.00 | 0.00 | 65 | 1017.9 |
| 20260507021208 | 78 | 258 | 0.0 | 0.0 | 0.00 | 0.00 | 0.00 | 65 | 1018.0 |
| 20260507020706 | 78 | 254 | 0.0 | 0.0 | 0.00 | 0.00 | 0.00 | 64 | 1017.9 |
| 20260507020201 | 78 | 255 | 0.0 | 0.0 | 0.00 | 0.00 | 0.00 | 64 | 1018.0 |
| 20260507015700 | 78 | 254 | 0.0 | 0.0 | 0.00 | 0.00 | 0.00 | 64 | 1017.6 |
| 20260507015157 | 78 | 252 | 1.0 | 1.0 | 0.00 | 0.00 | 0.00 | 64 | 1017.6 |
| 20260507014654 | 78 | 257 | 0.0 | 0.0 | 0.00 | 0.00 | 0.00 | 64 | 1017.7 |
| 20260507014150 | 78 | 252 | 0.0 | 0.0 | 0.00 | 0.00 | 0.00 | 63 | 1017.8 |
| 20260507013647 | 78 | 251 | 1.0 | 1.0 | 0.00 | 0.00 | 0.00 | 63 | 1017.7 |
| 20260507013144 | 78 | 250 | 1.0 | 1.0 | 0.00 | 0.00 | 0.00 | 63 | 1017.8 |
| 20260507012642 | 79 | 266 | 0.0 | 1.0 | 0.00 | 0.00 | 0.00 | 64 | 1017.9 |
| 20260507012137 | 78 | 255 | 1.0 | 1.0 | 0.00 | 0.00 | 0.00 | 64 | 1017.8 |
| 20260507011635 | 78 | 250 | 0.0 | 1.0 | 0.00 | 0.00 | 0.00 | 65 | 1017.9 |
| 20260507011131 | 79 | 251 | 1.0 | 1.0 | 0.00 | 0.00 | 0.00 | 65 | 1017.7 |
| 20260507010626 | 79 | 254 | 0.0 | 0.0 | 0.00 | 0.00 | 0.00 | 66 | 1017.8 |
| 20260507010122 | 79 | 259 | 1.0 | 2.0 | 0.00 | 0.00 | 0.00 | 66 | 1017.6 |
| 20260507005620 | 79 | 247 | 0.0 | 1.0 | 0.00 | 0.00 | 0.00 | 66 | 1017.8 |
| 20260507005116 | 79 | 256 | 0.0 | 1.0 | 0.00 | 0.00 | 0.00 | 65 | 1017.7 |
| 20260507004613 | 79 | 258 | 0.0 | 0.0 | 0.00 | 0.00 | 0.00 | 65 | 1017.6 |
| 20260507004110 | 79 | 254 | 1.0 | 2.0 | 0.00 | 0.00 | 0.00 | 65 | 1017.7 |
| 20260507003606 | 79 | 256 | 1.0 | 2.0 | 0.00 | 0.00 | 0.00 | 65 | 1017.4 |
| 20260507003101 | 79 | 259 | 0.0 | 1.0 | 0.00 | 0.00 | 0.00 | 65 | 1017.1 |
| 20260507002558 | 79 | 274 | 0.0 | 0.0 | 0.00 | 0.00 | 0.00 | 65 | 1017.3 |
| 20260507002054 | 79 | 277 | 0.0 | 0.0 | 0.00 | 0.00 | 0.00 | 66 | 1017.4 |
| 20260507001551 | 79 | 261 | 0.0 | 1.0 | 0.00 | 0.00 | 0.00 | 65 | 1017.0 |
| 20260507001048 | 80 | 263 | 0.0 | 0.0 | 0.00 | 0.00 | 0.00 | 65 | 1016.9 |
| 20260507000544 | 80 | 269 | 0.0 | 0.0 | 0.00 | 0.00 | 0.00 | 65 | 1016.9 |
| 20260507000040 | 80 | 266 | 0.0 | 0.0 | 0.00 | 0.00 | 0.00 | 65 | 1016.7 |
| 20260506235537 | 80 | 258 | 0.0 | 0.0 | 0.00 | 0.00 | 0.00 | 65 | 1017.0 |
| 20260506235027 | 81 | 287 | 0.0 | 1.0 | 0.00 | 0.00 | 0.00 | 65 | 1016.9 |
| 20260506234525 | 81 | 275 | 3.0 | 5.0 | 0.00 | 0.00 | 0.00 | 63 | 1016.8 |
| 20260506234022 | 81 | 264 | 0.0 | 0.0 | 0.00 | 0.00 | 0.00 | 64 | 1016.7 |
| 20260506233518 | 82 | 272 | 0.0 | 0.0 | 0.00 | 0.00 | 0.00 | 63 | 1016.5 |
| 20260506233016 | 83 | 240 | 3.0 | 3.0 | 0.00 | 0.00 | 0.00 | 62 | 1016.5 |
| 20260506232512 | 83 | 256 | 1.0 | 1.0 | 0.00 | 0.00 | 0.00 | 61 | 1016.6 |
| 20260506232007 | 84 | 259 | 1.0 | 2.0 | 0.00 | 0.00 | 0.00 | 61 | 1016.8 |
| 20260506231505 | 85 | 255 | 1.0 | 2.0 | 0.00 | 0.00 | 0.00 | 59 | 1016.6 |
| 20260506231003 | 85 | 258 | 1.0 | 2.0 | 0.00 | 0.00 | 0.00 | 60 | 1016.5 |
| 20260506230458 | 85 | 270 | 1.0 | 1.0 | 0.00 | 0.00 | 0.00 | 59 | 1016.8 |
| 20260506225955 | 85 | 276 | 0.0 | 0.0 | 0.00 | 0.00 | 0.00 | 62 | 1016.5 |
| 20260506225452 | 86 | 283 | 1.0 | 1.0 | 0.00 | 0.00 | 0.00 | 61 | 1016.5 |
| 20260506224949 | 86 | 310 | 1.0 | 1.0 | 0.00 | 0.00 | 0.00 | 60 | 1016.6 |
| 20260506224446 | 85 | 261 | 0.0 | 0.0 | 0.00 | 0.00 | 0.00 | 61 | 1016.6 |
| 20260506223942 | 85 | 282 | 0.0 | 0.0 | 0.00 | 0.00 | 0.00 | 62 | 1016.5 |
| 20260506223438 | 86 | 299 | 0.0 | 1.0 | 0.00 | 0.00 | 0.00 | 60 | 1016.9 |
| 20260506222936 | 88 | 236 | 1.0 | 1.0 | 0.00 | 0.00 | 0.00 | 59 | 1016.6 |
| 20260506222432 | 88 | 273 | 0.0 | 0.0 | 0.00 | 0.00 | 0.00 | 59 | 1016.5 |
| 20260506221929 | 89 | 272 | 0.0 | 1.0 | 0.00 | 0.00 | 0.00 | 55 | 1016.5 |
| 20260506221426 | 90 | 270 | 0.0 | 1.0 | 0.00 | 0.00 | 0.00 | 55 | 1016.3 |
| 20260506220924 | 89 | 269 | 0.0 | 0.0 | 0.00 | 0.00 | 0.00 | 55 | 1016.5 |
| 20260506220419 | 91 | 250 | 0.0 | 1.0 | 0.00 | 0.00 | 0.00 | 53 | 1016.5 |
| 20260506215916 | 92 | 229 | 1.0 | 2.0 | 0.00 | 0.00 | 0.00 | 47 | 1016.5 |
| 20260506215412 | 93 | 268 | 2.0 | 3.0 | 0.00 | 0.00 | 0.00 | 40 | 1016.6 |
| 20260506214902 | 94 | 264 | 0.0 | 0.0 | 0.00 | 0.00 | 0.00 | 40 | 1016.6 |
| 20260506214359 | 93 | 250 | 4.0 | 5.0 | 0.00 | 0.00 | 0.00 | 39 | 1016.4 |
| 20260506213857 | 93 | 257 | 0.0 | 1.0 | 0.00 | 0.00 | 0.00 | 40 | 1016.6 |
| 20260506213354 | 93 | 248 | 1.0 | 2.0 | 0.00 | 0.00 | 0.00 | 40 | 1016.7 |
| 20260506212852 | 93 | 268 | 1.0 | 1.0 | 0.00 | 0.00 | 0.00 | 39 | 1016.5 |
| 20260506212347 | 93 | 241 | 2.0 | 2.0 | 0.00 | 0.00 | 0.00 | 39 | 1016.6 |
| 20260506211842 | 93 | 251 | 2.0 | 2.0 | 0.00 | 0.00 | 0.00 | 40 | 1016.7 |
| 20260506211338 | 93 | 290 | 1.0 | 1.0 | 0.00 | 0.00 | 0.00 | 39 | 1016.8 |
| 20260506210836 | 93 | 270 | 3.0 | 5.0 | 0.00 | 0.00 | 0.00 | 39 | 1016.9 |
| 20260506210332 | 94 | 261 | 5.0 | 8.0 | 0.00 | 0.00 | 0.00 | 38 | 1016.6 |
| 20260506205830 | 93 | 340 | 0.0 | 1.0 | 0.00 | 0.00 | 0.00 | 42 | 1017.0 |
| 20260506205326 | 93 | 271 | 0.0 | 0.0 | 0.00 | 0.00 | 0.00 | 41 | 1016.9 |
| 20260506204822 | 93 | 259 | 1.0 | 2.0 | 0.00 | 0.00 | 0.00 | 41 | 1017.0 |
| 20260506204320 | 93 | 271 | 1.0 | 1.0 | 0.00 | 0.00 | 0.00 | 41 | 1016.8 |
| 20260506203818 | 93 | 246 | 2.0 | 5.0 | 0.00 | 0.00 | 0.00 | 40 | 1016.7 |
| 20260506203315 | 93 | 274 | 1.0 | 1.0 | 0.00 | 0.00 | 0.00 | 41 | 1016.9 |
| 20260506202811 | 92 | 250 | 1.0 | 5.0 | 0.00 | 0.00 | 0.00 | 40 | 1017.0 |
| 20260506202308 | 93 | 305 | 3.0 | 3.0 | 0.00 | 0.00 | 0.00 | 41 | 1016.9 |
| 20260506201805 | 93 | 280 | 1.0 | 1.0 | 0.00 | 0.00 | 0.00 | 40 | 1017.0 |
| 20260506201302 | 92 | 274 | 0.0 | 1.0 | 0.00 | 0.00 | 0.00 | 43 | 1017.1 |
| 20260506200759 | 92 | 257 | 0.0 | 1.0 | 0.00 | 0.00 | 0.00 | 42 | 1017.2 |
| 20260506200249 | 93 | 278 | 4.0 | 5.0 | 0.00 | 0.00 | 0.00 | 42 | 1017.1 |
| 20260506195746 | 92 | 281 | 3.0 | 5.0 | 0.00 | 0.00 | 0.00 | 42 | 1017.2 |
| 20260506195242 | 91 | 258 | 0.0 | 0.0 | 0.00 | 0.00 | 0.00 | 45 | 1017.4 |
| 20260506194740 | 91 | 283 | 2.0 | 2.0 | 0.00 | 0.00 | 0.00 | 43 | 1017.6 |
| 20260506194236 | 92 | 275 | 3.0 | 3.0 | 0.00 | 0.00 | 0.00 | 43 | 1017.5 |
| 20260506193734 | 92 | 304 | 2.0 | 2.0 | 0.00 | 0.00 | 0.00 | 44 | 1017.6 |
| 20260506193231 | 92 | 254 | 2.0 | 2.0 | 0.00 | 0.00 | 0.00 | 41 | 1017.8 |
| 20260506192727 | 91 | 265 | 1.0 | 3.0 | 0.00 | 0.00 | 0.00 | 44 | 1017.6 |
| 20260506192224 | 91 | 257 | 3.0 | 3.0 | 0.00 | 0.00 | 0.00 | 44 | 1017.8 |
| 20260506191721 | 91 | 265 | 0.0 | 0.0 | 0.00 | 0.00 | 0.00 | 44 | 1017.9 |
| 20260506191217 | 91 | 271 | 2.0 | 2.0 | 0.00 | 0.00 | 0.00 | 44 | 1017.9 |
| 20260506190714 | 91 | 250 | 1.0 | 3.0 | 0.00 | 0.00 | 0.00 | 45 | 1018.0 |
| 20260506190210 | 90 | 261 | 3.0 | 5.0 | 0.00 | 0.00 | 0.00 | 44 | 1018.1 |
| 20260506185708 | 91 | 307 | 3.0 | 3.0 | 0.00 | 0.00 | 0.00 | 45 | 1018.2 |
| 20260506185204 | 91 | 247 | 1.0 | 2.0 | 0.00 | 0.00 | 0.00 | 45 | 1018.2 |
| 20260506184702 | 91 | 254 | 1.0 | 2.0 | 0.00 | 0.00 | 0.00 | 45 | 1018.1 |
| 20260506184159 | 90 | 263 | 0.0 | 0.0 | 0.00 | 0.00 | 0.00 | 46 | 1018.4 |
| 20260506183655 | 90 | 261 | 0.0 | 0.0 | 0.00 | 0.00 | 0.00 | 46 | 1018.5 |
| 20260506183151 | 89 | 250 | 1.0 | 3.0 | 0.00 | 0.00 | 0.00 | 47 | 1018.5 |
| 20260506182649 | 90 | 267 | 1.0 | 1.0 | 0.00 | 0.00 | 0.00 | 47 | 1018.7 |
| 20260506182146 | 89 | 282 | 0.0 | 1.0 | 0.00 | 0.00 | 0.00 | 48 | 1018.5 |
| 20260506181644 | 89 | 240 | 1.0 | 2.0 | 0.00 | 0.00 | 0.00 | 48 | 1018.6 |
| 20260506181141 | 89 | 262 | 1.0 | 2.0 | 0.00 | 0.00 | 0.00 | 47 | 1018.6 |
| 20260506180638 | 89 | 269 | 1.0 | 3.0 | 0.00 | 0.00 | 0.00 | 48 | 1018.5 |
| 20260506180134 | 89 | 269 | 2.0 | 2.0 | 0.00 | 0.00 | 0.00 | 48 | 1018.7 |
| 20260506175630 | 89 | 314 | 3.0 | 3.0 | 0.00 | 0.00 | 0.00 | 50 | 1018.7 |
| 20260506175126 | 88 | 259 | 1.0 | 1.0 | 0.00 | 0.00 | 0.00 | 50 | 1018.5 |
| 20260506174626 | 88 | 284 | 2.0 | 3.0 | 0.00 | 0.00 | 0.00 | 49 | 1018.6 |
| 20260506174122 | 87 | 234 | 3.0 | 5.0 | 0.00 | 0.00 | 0.00 | 52 | 1018.8 |
| 20260506173620 | 86 | 263 | 3.0 | 5.0 | 0.00 | 0.00 | 0.00 | 52 | 1019.1 |
| 20260506173116 | 87 | 257 | 4.0 | 6.0 | 0.00 | 0.00 | 0.00 | 53 | 1019.2 |
| 20260506172613 | 86 | 259 | 1.0 | 3.0 | 0.00 | 0.00 | 0.00 | 53 | 1019.3 |
| 20260506172109 | 87 | 250 | 2.0 | 2.0 | 0.00 | 0.00 | 0.00 | 52 | 1019.5 |
| 20260506171607 | 87 | 262 | 1.0 | 1.0 | 0.00 | 0.00 | 0.00 | 56 | 1019.3 |
| 20260506171105 | 86 | 269 | 0.0 | 1.0 | 0.00 | 0.00 | 0.00 | 54 | 1019.4 |
| 20260506170601 | 86 | 267 | 0.0 | 0.0 | 0.00 | 0.00 | 0.00 | 54 | 1019.4 |
| 20260506170053 | 86 | 251 | 1.0 | 2.0 | 0.00 | 0.00 | 0.00 | 55 | 1019.5 |
| 20260506165551 | 86 | 249 | 1.0 | 1.0 | 0.00 | 0.00 | 0.00 | 56 | 1019.4 |
| 20260506165042 | 85 | 327 | 2.0 | 3.0 | 0.00 | 0.00 | 0.00 | 56 | 1019.8 |
| 20260506164539 | 85 | 294 | 1.0 | 1.0 | 0.00 | 0.00 | 0.00 | 57 | 1019.6 |
| 20260506164036 | 85 | 246 | 3.0 | 5.0 | 0.00 | 0.00 | 0.00 | 56 | 1019.8 |
| 20260506163531 | 85 | 248 | 3.0 | 6.0 | 0.00 | 0.00 | 0.00 | 57 | 1019.9 |
| 20260506163027 | 84 | 230 | 3.0 | 3.0 | 0.00 | 0.00 | 0.00 | 56 | 1019.8 |
| 20260506162523 | 84 | 264 | 3.0 | 3.0 | 0.00 | 0.00 | 0.00 | 58 | 1019.9 |
| 20260506162015 | 84 | 232 | 1.0 | 1.0 | 0.00 | 0.00 | 0.00 | 58 | 1019.7 |
| 20260506161513 | 84 | 264 | 1.0 | 1.0 | 0.00 | 0.00 | 0.00 | 58 | 1020.0 |
| 20260506161009 | 83 | 241 | 2.0 | 3.0 | 0.00 | 0.00 | 0.00 | 60 | 1019.9 |
| 20260506160507 | 83 | 222 | 1.0 | 2.0 | 0.00 | 0.00 | 0.00 | 60 | 1019.9 |
| 20260506160004 | 82 | 246 | 1.0 | 1.0 | 0.00 | 0.00 | 0.00 | 60 | 1019.8 |
| 20260506155502 | 82 | 258 | 0.0 | 0.0 | 0.00 | 0.00 | 0.00 | 61 | 1019.7 |
| 20260506153634 | 82 | 259 | 4.0 | 5.0 | 0.00 | 0.00 | 0.00 | 62 | 1019.9 |
| 20260506153131 | 81 | 233 | 1.0 | 1.0 | 0.00 | 0.00 | 0.00 | 64 | 1020.0 |
| 20260506152628 | 81 | 263 | 1.0 | 2.0 | 0.00 | 0.00 | 0.00 | 62 | 1020.0 |
| 20260506152126 | 81 | 248 | 2.0 | 3.0 | 0.00 | 0.00 | 0.00 | 64 | 1019.8 |
| 20260506151624 | 80 | 225 | 1.0 | 2.0 | 0.00 | 0.00 | 0.00 | 66 | 1019.8 |
| 20260506151121 | 80 | 273 | 2.0 | 3.0 | 0.00 | 0.00 | 0.00 | 67 | 1019.8 |
| 20260506150618 | 80 | 258 | 1.0 | 2.0 | 0.00 | 0.00 | 0.00 | 67 | 1019.6 |
| 20260506150115 | 80 | 217 | 2.0 | 3.0 | 0.00 | 0.00 | 0.00 | 66 | 1019.8 |
| 20260506145612 | 79 | 239 | 1.0 | 2.0 | 0.00 | 0.00 | 0.00 | 68 | 1019.7 |
| 20260506145109 | 79 | 258 | 4.0 | 5.0 | 0.00 | 0.00 | 0.00 | 69 | 1019.6 |
| 20260506144606 | 78 | 282 | 3.0 | 5.0 | 0.00 | 0.00 | 0.00 | 69 | 1019.9 |
| 20260506144102 | 78 | 252 | 4.0 | 6.0 | 0.00 | 0.00 | 0.00 | 70 | 1019.6 |
| 20260506143600 | 78 | 265 | 5.0 | 7.0 | 0.00 | 0.00 | 0.00 | 70 | 1019.7 |
| 20260506143058 | 77 | 281 | 0.0 | 0.0 | 0.00 | 0.00 | 0.00 | 71 | 1019.7 |
| 20260506142555 | 78 | 262 | 3.0 | 5.0 | 0.00 | 0.00 | 0.00 | 71 | 1019.6 |
| 20260506142054 | 77 | 254 | 3.0 | 5.0 | 0.00 | 0.00 | 0.00 | 71 | 1019.7 |
| 20260506141551 | 77 | 226 | 1.0 | 1.0 | 0.00 | 0.00 | 0.00 | 72 | 1019.5 |
| 20260506141050 | 77 | 267 | 5.0 | 8.0 | 0.00 | 0.00 | 0.00 | 73 | 1019.8 |
| 20260506140547 | 76 | 277 | 2.0 | 3.0 | 0.00 | 0.00 | 0.00 | 73 | 1019.7 |
| 20260506140044 | 76 | 259 | 2.0 | 2.0 | 0.00 | 0.00 | 0.00 | 73 | 1019.8 |
| 20260506135540 | 76 | 270 | 2.0 | 3.0 | 0.00 | 0.00 | 0.00 | 75 | 1019.8 |
| 20260506135031 | 75 | 294 | 1.0 | 2.0 | 0.00 | 0.00 | 0.00 | 76 | 1019.6 |
| 20260506134527 | 75 | 276 | 1.0 | 2.0 | 0.00 | 0.00 | 0.00 | 75 | 1019.7 |
| 20260506134023 | 75 | 260 | 1.0 | 1.0 | 0.00 | 0.00 | 0.00 | 75 | 1019.6 |
| 20260506133521 | 75 | 254 | 1.0 | 2.0 | 0.00 | 0.00 | 0.00 | 75 | 1019.7 |
| 20260506133018 | 75 | 292 | 2.0 | 2.0 | 0.00 | 0.00 | 0.00 | 75 | 1019.7 |
| 20260506132515 | 74 | 262 | 0.0 | 0.0 | 0.00 | 0.00 | 0.00 | 77 | 1019.7 |
| 20260506132012 | 74 | 268 | 0.0 | 0.0 | 0.00 | 0.00 | 0.00 | 78 | 1019.7 |
| 20260506131509 | 73 | 257 | 3.0 | 3.0 | 0.00 | 0.00 | 0.00 | 78 | 1019.6 |
| 20260506131006 | 72 | 223 | 2.0 | 2.0 | 0.00 | 0.00 | 0.00 | 79 | 1019.6 |
| 20260506130503 | 72 | 289 | 0.0 | 1.0 | 0.00 | 0.00 | 0.00 | 80 | 1019.4 |
| 20260506130000 | 71 | 259 | 2.0 | 2.0 | 0.00 | 0.00 | 0.00 | 81 | 1019.4 |
| 20260506125458 | 71 | 269 | 1.0 | 1.0 | 0.00 | 0.00 | 0.00 | 81 | 1019.1 |
| 20260506124955 | 71 | 279 | 3.0 | 5.0 | 0.00 | 0.00 | 0.00 | 82 | 1019.3 |
| 20260506124453 | 71 | 264 | 0.0 | 0.0 | 0.00 | 0.00 | 0.00 | 82 | 1019.5 |
| 20260506123950 | 70 | 242 | 1.0 | 1.0 | 0.00 | 0.00 | 0.00 | 83 | 1019.3 |
| 20260506123448 | 70 | 263 | 0.0 | 1.0 | 0.00 | 0.00 | 0.00 | 84 | 1019.2 |
| 20260506122940 | 69 | 268 | 0.0 | 0.0 | 0.00 | 0.00 | 0.00 | 84 | 1019.4 |
| 20260506122437 | 69 | 199 | 1.0 | 1.0 | 0.00 | 0.00 | 0.00 | 84 | 1019.1 |
| 20260506121935 | 68 | 287 | 1.0 | 1.0 | 0.00 | 0.00 | 0.00 | 86 | 1019.1 |
| 20260506121432 | 67 | 267 | 0.0 | 0.0 | 0.00 | 0.00 | 0.00 | 89 | 1019.0 |
| 20260506120929 | 65 | 269 | 0.0 | 0.0 | 0.00 | 0.00 | 0.00 | 92 | 1018.6 |
| 20260506120426 | 64 | 269 | 0.0 | 0.0 | 0.00 | 0.00 | 0.00 | 93 | 1019.0 |
| 20260506115924 | 64 | 269 | 0.0 | 0.0 | 0.00 | 0.00 | 0.00 | 94 | 1018.8 |
| 20260506115421 | 63 | 269 | 0.0 | 0.0 | 0.00 | 0.00 | 0.00 | 94 | 1018.9 |
| 20260506114920 | 63 | 269 | 0.0 | 0.0 | 0.00 | 0.00 | 0.00 | 94 | 1018.8 |
| 20260506114417 | 62 | 269 | 0.0 | 0.0 | 0.00 | 0.00 | 0.00 | 94 | 1018.7 |
| 20260506113916 | 62 | 269 | 0.0 | 0.0 | 0.00 | 0.00 | 0.00 | 94 | 1019.0 |
| 20260506113413 | 62 | 269 | 0.0 | 0.0 | 0.00 | 0.00 | 0.00 | 95 | 1018.6 |
| 20260506112909 | 61 | 269 | 0.0 | 0.0 | 0.00 | 0.00 | 0.00 | 94 | 1018.5 |
| 20260506112407 | 61 | 269 | 0.0 | 0.0 | 0.00 | 0.00 | 0.00 | 94 | 1018.7 |
| 20260506111904 | 61 | 269 | 0.0 | 0.0 | 0.00 | 0.00 | 0.00 | 94 | 1018.7 |
| 20260506111402 | 61 | 269 | 0.0 | 0.0 | 0.00 | 0.00 | 0.00 | 95 | 1018.9 |
| 20260506110859 | 60 | 269 | 0.0 | 0.0 | 0.00 | 0.00 | 0.00 | 95 | 1018.6 |
| 20260506110356 | 60 | 269 | 0.0 | 0.0 | 0.00 | 0.00 | 0.00 | 94 | 1018.5 |
| 20260506105852 | 60 | 269 | 0.0 | 0.0 | 0.00 | 0.00 | 0.00 | 94 | 1018.7 |
| 20260506105349 | 60 | 269 | 0.0 | 0.0 | 0.00 | 0.00 | 0.00 | 95 | 1018.5 |
| 20260506104847 | 60 | 269 | 0.0 | 0.0 | 0.00 | 0.00 | 0.00 | 95 | 1018.3 |
| 20260506104344 | 60 | 269 | 0.0 | 0.0 | 0.00 | 0.00 | 0.00 | 95 | 1018.4 |
| 20260506103842 | 60 | 269 | 0.0 | 0.0 | 0.00 | 0.00 | 0.00 | 95 | 1018.3 |
| 20260506103339 | 60 | 269 | 0.0 | 0.0 | 0.00 | 0.00 | 0.00 | 94 | 1018.2 |
| 20260506102836 | 60 | 269 | 0.0 | 0.0 | 0.00 | 0.00 | 0.00 | 94 | 1018.0 |
| 20260506102335 | 61 | 269 | 0.0 | 0.0 | 0.00 | 0.00 | 0.00 | 94 | 1018.1 |
| 20260506101831 | 60 | 269 | 0.0 | 0.0 | 0.00 | 0.00 | 0.00 | 94 | 1017.8 |
| 20260506101327 | 61 | 269 | 0.0 | 0.0 | 0.00 | 0.00 | 0.00 | 94 | 1018.3 |
| 20260506100825 | 60 | 269 | 0.0 | 0.0 | 0.00 | 0.00 | 0.00 | 94 | 1018.5 |
| 20260506100324 | 61 | 269 | 0.0 | 0.0 | 0.00 | 0.00 | 0.00 | 94 | 1018.6 |
| 20260506095822 | 61 | 269 | 0.0 | 0.0 | 0.00 | 0.00 | 0.00 | 94 | 1018.5 |
| 20260506095318 | 61 | 269 | 0.0 | 0.0 | 0.00 | 0.00 | 0.00 | 94 | 1018.4 |
| 20260506094815 | 61 | 269 | 0.0 | 0.0 | 0.00 | 0.00 | 0.00 | 94 | 1018.3 |
| 20260506094314 | 61 | 269 | 0.0 | 0.0 | 0.00 | 0.00 | 0.00 | 93 | 1018.3 |
| 20260506093812 | 61 | 269 | 0.0 | 0.0 | 0.00 | 0.00 | 0.00 | 93 | 1018.4 |
| 20260506093308 | 61 | 269 | 0.0 | 0.0 | 0.00 | 0.00 | 0.00 | 93 | 1018.0 |
| 20260506092807 | 61 | 269 | 0.0 | 0.0 | 0.00 | 0.00 | 0.00 | 93 | 1017.9 |
| 20260506092306 | 61 | 269 | 0.0 | 0.0 | 0.00 | 0.00 | 0.00 | 93 | 1018.0 |
| 20260506091801 | 61 | 269 | 0.0 | 0.0 | 0.00 | 0.00 | 0.00 | 93 | 1018.0 |
| 20260506091258 | 62 | 269 | 0.0 | 0.0 | 0.00 | 0.00 | 0.00 | 93 | 1017.9 |
| 20260506090756 | 62 | 269 | 0.0 | 0.0 | 0.00 | 0.00 | 0.00 | 92 | 1018.1 |
| 20260506090253 | 61 | 269 | 0.0 | 0.0 | 0.00 | 0.00 | 0.00 | 93 | 1017.8 |
| 20260506085750 | 61 | 269 | 0.0 | 0.0 | 0.00 | 0.00 | 0.00 | 93 | 1018.0 |